Regional Weather Roundup
Issued by NWS

Home | Current Version | Previous Version | Graphics & Text | Print | Product List | Glossary On
Versions: 1 2 3 4 5 6 7 8 9 10 11 12 13 14 15 16 17 18 19 20 21 22 23 24 25 26 27 28 29 30 31 32 33 34 35 36 37 38 39 40 41 42 43 44 45 46 47 48 49 50
000
ASUS43 KMKX 160021
RWRWI

WISCONSIN REGIONAL WEATHER ROUNDUP
NATIONAL WEATHER SERVICE MILWAUKEE/SULLIVAN WI
700 PM CDT MON SEP 15 2014

NOTE: "FAIR" INDICATES FEW OR NO CLOUDS BELOW 12,000 FEET WITH NO
SIGNIFICANT WEATHER AND/OR OBSTRUCTIONS TO VISIBILITY.

WIZ001-002-006>008-014>016-023>028-160100-
NORTHWEST WISCONSIN

CITY           SKY/WX    TMP DP  RH WIND       PRES   REMARKS
SUPERIOR ARPT  CLEAR     54  39  56 W6        30.16S
6HR MIN TEMP:  54; 6HR MAX TEMP:  60;

ASHLAND        CLEAR     48  40  73 SW3       30.16S
6HR MIN TEMP:  48; 6HR MAX TEMP:  59;

HAYWARD        CLEAR     54  36  50 CALM      30.17S
6HR MIN TEMP:  54; 6HR MAX TEMP:  59;

SIREN          CLEAR     54  38  53 CALM      30.18S
6HR MIN TEMP:  54; 6HR MAX TEMP:  60;

RICE LAKE      CLEAR     53  37  55 NW3       30.19S
6HR MIN TEMP:  53; 6HR MAX TEMP:  61;

LADYSMITH      CLEAR     53  38  58 NW6       30.18S
6HR MIN TEMP:  53; 6HR MAX TEMP:  60;

EAU CLAIRE     CLEAR     55  39  54 NW5       30.17S
6HR MIN TEMP:  55; 6HR MAX TEMP:  63;

MENOMONIE      CLEAR     57  37  47 NW7       30.18S
6HR MIN TEMP:  57; 6HR MAX TEMP:  62;

NEW RICHMOND   CLEAR     54  38  54 NW5       30.19S
6HR MIN TEMP:  54; 6HR MAX TEMP:  61;

OSCEOLA        CLEAR     56  38  52 NW5       30.21S
6HR MIN TEMP:  56; 6HR MAX TEMP:  62;

$$

WIZ003>005-009-010-017-018-160100-
NORTH CENTRAL WISCONSIN

CITY           SKY/WX    TMP DP  RH WIND       PRES   REMARKS
WOODRUFF       CLEAR     47  36  66 NW6       30.15S
6HR MIN TEMP:  52; 6HR MAX TEMP:  59;

RHINELANDER    CLEAR     51  36  56 NW6       30.15R
6HR MIN TEMP:  51; 6HR MAX TEMP:  59;

EAGLE RIVER    CLEAR     48  34  58 NW9       30.14R
6HR MIN TEMP:  48; 6HR MAX TEMP:  59;

LAND O LAKES   CLEAR     48  36  64 NW3       30.15S
6HR MIN TEMP:  48; 6HR MAX TEMP:  58;

PHILLIPS       CLEAR     49  36  60 NW3       30.16S
6HR MIN TEMP:  49; 6HR MAX TEMP:  58;

TOMAHAWK       CLEAR     50  38  62 CALM      30.15S
6HR MIN TEMP:  50; 6HR MAX TEMP:  59;

MEDFORD        CLEAR     51  38  60 NW5       30.15S
6HR MIN TEMP:  51; 6HR MAX TEMP:  60;

MERRILL        CLOUDY    53  38  56 NW3       30.14R
6HR MIN TEMP:  53; 6HR MAX TEMP:  60;

$$

WIZ029-030-035-036-043>047-160100-
CENTRAL WISCONSIN

CITY           SKY/WX    TMP DP  RH WIND       PRES   REMARKS
WAUSAU         CLEAR     56  37  49 NW7       30.12R
6HR MIN TEMP:  56; 6HR MAX TEMP:  62;

MOSINEE        CLEAR     54  39  58 NW8       30.14S
MARSHFIELD     CLEAR     52  42  69 NW7       30.15R
6HR MIN TEMP:  52; 6HR MAX TEMP:  62;

STEVENS POINT  CLEAR     55  42  62 NW3       30.14R
6HR MIN TEMP:  53; 6HR MAX TEMP:  59;

WAUPACA        MOCLDY    58  49  72 CALM      30.13S
6HR MIN TEMP:  56; 6HR MAX TEMP:  63;

WAUTOMA        CLEAR     55  49  80 CALM      30.14S
6HR MIN TEMP:  54; 6HR MAX TEMP:  60; 6HR PCP: TRACE;

WISC RAPIDS    LGT RAIN  53  44  71 NW6       30.15R
6HR MIN TEMP:  53; 6HR MAX TEMP:  60; 6HR PCP: TRACE;

CAMP DOUGLAS   PTCLDY    57  52  82 W7        30.15S
                                      6HR PCP:  0.01;

$$

WIZ011>013-019>022-031-037>040-048>050-160100-
NORTHEAST WISCONSIN

CITY           SKY/WX    TMP DP  RH WIND       PRES   REMARKS
ANTIGO         CLEAR     52  40  63 NW6       30.13S
6HR MIN TEMP:  52; 6HR MAX TEMP:  59;

STURGEON BAY   CLEAR     55  46  71 SW3       30.11S
6HR MIN TEMP:  55; 6HR MAX TEMP:  61;

GREEN BAY      CLEAR     55  49  80 SW5       30.11S
6HR MIN TEMP:  55; 6HR MAX TEMP:  61;

MANITOWOC      CLEAR     55  50  83 W3        30.12S
6HR MIN TEMP:  55; 6HR MAX TEMP:  58;

APPLETON       PTCLDY    55  46  71 SW7       30.13R
CLINTONVILLE   PTCLDY    55  43  62 NW3       30.12R
OSHKOSH        CLEAR     55  47  74 W5        30.13R
6HR MIN TEMP:  54; 6HR MAX TEMP:  59; 6HR PCP:  0.03;

$$

WIZ032>034-041-042-053>061-160100-
SOUTHWEST WISCONSIN

CITY           SKY/WX    TMP DP  RH WIND       PRES   REMARKS
LA CROSSE      CLEAR     57  43  59 NW7       30.17R
6HR MIN TEMP:  55; 6HR MAX TEMP:  64;

SPARTA         CLEAR     56  42  61 NW3       30.17S
6HR MIN TEMP:  52; 6HR MAX TEMP:  60;

VIROQUA        FAIR      53  46  77 NW6       30.17S
6HR MIN TEMP:  51; 6HR MAX TEMP:  59;

BOSCOBEL       CLEAR     56  48  74 W3        30.17R
6HR MIN TEMP:  53; 6HR MAX TEMP:  62; 6HR PCP:  0.01;

PRAIRIE DU CHI CLEAR     54  47  78 CALM      30.17S
6HR MIN TEMP:  53; 6HR MAX TEMP:  60;

PLATTEVILLE    FAIR      53  46  77 CALM      30.18R
6HR MIN TEMP:  51; 6HR MAX TEMP:  58; 6HR PCP:  0.02;

$$

WIZ056-057-062-063-064-067-068-160100-
SOUTH CENTRAL WISCONSIN

CITY           SKY/WX    TMP DP  RH WIND       PRES   REMARKS
BARABOO/DELLS  CLEAR     54  46  73 CALM      30.15S
LONE ROCK      CLEAR     57  47  69 CALM      30.16S
6HR MIN TEMP:  56; 6HR MAX TEMP:  63; 6HR PCP:  0.05;

WATERTOWN      CLEAR     53  49  87 CALM      30.14S
6HR MIN TEMP:  51; 6HR MAX TEMP:  55; 6HR PCP:  0.12;

MADISON        PTCLDY    52  46  80 NW3       30.15S
6HR MIN TEMP:  52; 6HR MAX TEMP:  58; 6HR PCP:  0.07;

MIDDLETON      FAIR      53  46  77 CALM      30.16S
6HR MIN TEMP:  53; 6HR MAX TEMP:  59; 6HR PCP:  0.05;

MONROE         PTCLDY    52  48  87 N3        30.15S
JANESVILLE     MOCLDY    55  46  71 N6        30.15R
$$

WIZ051-052-058>065-066-070>072-160100-
SOUTHEAST WISCONSIN

CITY           SKY/WX    TMP DP  RH WIND       PRES   REMARKS
MILWAUKEE      MOCLDY    53  49  86 N3        30.14R
6HR MIN TEMP:  53; 6HR MAX TEMP:  57; 6HR PCP:  0.04;

WAUKESHA       PTCLDY    52  46  82 NW5       30.15R
MILWAUKEE/TIMM MOCLDY    54  46  76 N6        30.15R
RACINE         PTCLDY    53  49  86 NW6       30.15S
6HR MIN TEMP:  53; 6HR MAX TEMP:  60; 6HR PCP:  0.06;

BURLINGTON     PTCLDY    50  46  88 N5        30.14R
6HR MIN TEMP:  50; 6HR MAX TEMP:  59;

KENOSHA        MOCLDY    53  50  89 N5        30.14S
6HR MIN TEMP:  53; 6HR MAX TEMP:  61; 6HR PCP:  0.07;

FOND DU LAC    CLEAR     54  47  77 W3        30.13S
6HR MIN TEMP:  53; 6HR MAX TEMP:  57; 6HR PCP:  0.09;

SHEBOYGAN      PTCLDY    52  49  89 W5        30.12S
6HR MIN TEMP:  52; 6HR MAX TEMP:  56; 6HR PCP:  0.10;

WEST BEND      CLEAR     52  46  82 CALM      30.14S
JUNEAU         CLEAR     52  47  84 CALM      30.15S
6HR MIN TEMP:  51; 6HR MAX TEMP:  56; 6HR PCP:  0.11;

$$

LSZ147-162-160100-
LAKE SUPERIOR

STATION/POSITION TIME  TEMP    WIND        PRES    WAVE
                       AIR SEA DIR/SP/G            HT/PER
                 (UTC) (F)     (DEG/KT/KT) (MB)    (FT/S)
W MID LAKE BUOY  2350   51 48  240/ 14/ 14 1019.6F   1/ 4
DEVILS ISLAND    0000   53     230/ 11/ 13 1020.5F
PORT WING        2300   58     220/  5/ 10 1021.0S
SAXON HARBOR     2300   57     260/  3/  6 1021.0S
$$

LMZ867-665-643>646-160100-
LAKE MICHIGAN

STATION/POSITION TIME  TEMP    WIND        PRES    WAVE
                       AIR SEA DIR/SP/G            HT/PER
                 (UTC) (F)     (DEG/KT/KT) (MB)    (FT/S)
N MID LAKE BUOY  2350   56 59  220/  6/  6 1019.2R   1/ 5
NORTHPORT PIER   2300   61     200/  1/  4 1018.6S
KEWAUNEE LAKESHO 0000   56     270/  1/  2 1018.6R
SHEBOYGAN LAKESH 0000   55 49  260/  5/  5 1020.4F
PORT WASHINGTON  2340   55     300/  3/  6 1021.0R
ATWATER BUOY     0000   56     310/ 10/ 12 1021.4R
MILWAUKEE LAKESH 0000   55     320/  6/  8   N/A
S MID LAKE BUOY  2350   57 64  360/ 16/ 19 1019.8R   3/ 4
KENOSHA   LAKESH 0000   54     340/  7/  9 1020.3R
$$

TC  - TEMPERATURE IN CELSIUS
VSB - VISIBILITY IN STATUTE MILES
WCI - WIND CHILL INDEX
HX  - HEAT INDEX




USA.gov is the U.S. government's official web portal to all federal, state and local government web resources and services.